Voltar ao catálogo

STARLINK-35091

AtivoComunicaçõesVLEO
NORAD 65640·PAYLOAD·🇺🇸 United States

Lançado Sep 18, 2025 de Cape Canaveral Space Force Station

Loading…

Próximas Passagens (próximas 24 horas)

TLE

AtualizadoSource: CelesTrak SupGP

Época: Sep 15, 2026, 03:42 UTC

1 65640C 25210U   26258.15465278  .00067888  00000+0  20049-2 0  2583
2 65640  53.1570 142.9406 0001226  93.3505  18.7742 15.34370294    14

Acompanhe STARLINK-35091 em tempo real com AllMySat

Download on the App Store